Track COSMOS 2492 (GLONASS) now! COSMOS 2492 (GLONASS) is classified as:
1 39620U 14012A 25198.75613361 -.00000061 00000-0 00000-0 0 9993 2 39620 65.4886 325.2858 0010619 318.9410 40.9893 2.13103113 88111